User: anonymous
Location: Hale Hill Observatory
(39.3806°N, 86.8431°W)
Time: 12:56:43
(UTC-04:00)
Language:

Cosmos 990 Rocket - Orbit

View from above orbital plane
View from above orbital plane
View from above satellite
View from above satellite

Ground track
Ground track

The orbit data is extracted from the following two-line orbital elements,

1 10677U 78019B   14205.13066772  .00000062  00000-0  28245-4 0  4594
2 10677 074.0381 097.7186 0014385 071.0964 289.1749 14.39657329910067
Epoch (UTC): 24 July 2014 03:08:09
Eccentricity: 0.0014385
inclination: 74.0381°
perigee height: 749 km
apogee height: 770 km
right ascension of ascending node: 97.7186°
argument of perigee: 71.0964°
revolutions per day: 14.39657329
mean anomaly at epoch: 289.1749°
orbit number at epoch: 91006

The dashed part of the orbit path shows where the satellite is in the earth's shadow,  

DLR